Time,TemperatureF,DewpointF,PressureIn,WindDirection,WindDirectionDegrees,WindSpeedMPH,WindSpeedGustMPH,Humidity,HourlyPrecipIn,Conditions,Clouds,dailyrainin,SoftwareType,DateUTC
2013-08-24 00:24:00,60.0,59.0,30.20,North,0,0.0,0.0,95,0.00,,,0.91,,2013-08-24 04:24:00,
2013-08-24 00:53:00,59.0,58.0,30.21,North,0,0.0,0.0,96,0.00,,,0.87,,2013-08-24 04:53:00,
2013-08-24 01:23:00,59.0,58.0,30.22,North,0,0.0,0.0,97,0.00,,,0.87,,2013-08-24 05:23:00,
2013-08-24 01:53:00,58.0,57.0,30.22,North,0,0.0,0.0,97,0.00,,,0.86,,2013-08-24 05:53:00,
2013-08-24 02:22:00,56.0,55.0,30.22,North,0,0.0,4.0,96,0.00,,,0.86,,2013-08-24 06:22:00,
2013-08-24 02:52:00,56.0,55.0,30.20,North,0,0.0,2.0,97,0.00,,,0.86,,2013-08-24 06:52:00,
2013-08-24 03:12:00,56.0,55.0,30.20,North,0,0.0,0.0,97,0.00,,,0.86,,2013-08-24 07:12:00,
2013-08-24 03:22:00,56.0,55.0,30.21,North,0,0.0,0.0,98,0.00,,,0.86,,2013-08-24 07:22:00,
2013-08-24 03:53:00,57.0,56.0,30.22,North,0,0.0,0.0,98,0.00,,,0.86,,2013-08-24 07:53:00,
2013-08-24 04:22:00,57.0,56.0,30.22,North,0,0.0,0.0,98,0.00,,,0.86,,2013-08-24 08:22:00,
2013-08-24 04:52:00,56.0,55.0,30.22,North,0,0.0,0.0,98,0.00,,,0.86,,2013-08-24 08:52:00,
2013-08-24 05:22:00,56.0,55.0,30.23,North,0,0.0,0.0,98,0.00,,,0.86,,2013-08-24 09:22:00,
2013-08-24 05:53:00,55.0,54.0,30.24,North,0,0.0,0.0,98,0.00,,,0.86,,2013-08-24 09:53:00,
2013-08-24 06:23:00,55.0,54.0,30.25,North,0,0.0,1.0,98,0.00,,,0.86,,2013-08-24 10:23:00,
2013-08-24 06:53:00,54.0,53.0,30.26,North,0,0.0,0.0,98,0.00,,,0.86,,2013-08-24 10:53:00,
2013-08-24 07:22:00,54.0,53.0,30.27,North,0,0.0,0.0,98,0.00,,,0.86,,2013-08-24 11:22:00,
2013-08-24 07:52:00,55.0,54.0,30.29,North,0,0.0,0.0,97,0.00,,,0.86,,2013-08-24 11:52:00,
2013-08-24 08:02:00,55.0,54.0,30.29,North,0,0.0,0.0,97,0.00,,,0.86,,2013-08-24 12:02:00,
2013-08-24 08:12:00,55.0,54.0,30.29,North,0,0.0,0.0,97,0.00,,,0.86,,2013-08-24 12:12:00,
2013-08-24 08:21:00,55.0,54.0,30.29,North,0,0.0,0.0,97,0.00,,,0.86,,2013-08-24 12:21:00,
2013-08-24 08:52:00,59.0,55.0,30.30,North,0,0.0,2.0,88,0.00,,,0.75,,2013-08-24 12:52:00,
2013-08-24 09:22:00,63.0,57.0,30.31,ESE,113,1.0,3.0,82,0.00,,,0.65,,2013-08-24 13:22:00,
2013-08-24 09:52:00,64.0,57.0,30.33,ESE,105,1.0,4.0,79,0.00,,,0.51,,2013-08-24 13:52:00,
2013-08-24 10:02:00,64.0,57.0,30.33,ESE,105,1.0,4.0,79,0.00,,,0.51,,2013-08-24 14:02:00,
2013-08-24 10:22:00,64.0,56.0,30.33,ESE,118,4.0,6.0,75,0.00,,,0.35,,2013-08-24 14:22:00,
2013-08-24 10:52:00,66.0,57.0,30.34,ESE,109,3.0,7.0,73,0.00,,,0.16,,2013-08-24 14:52:00,
2013-08-24 11:22:00,68.0,58.0,30.34,ESE,116,4.0,7.0,71,0.00,,,0.02,,2013-08-24 15:22:00,
2013-08-24 11:54:00,68.0,58.0,30.34,ESE,106,3.0,6.0,70,0.00,,,0.01,,2013-08-24 15:54:00,
2013-08-24 12:23:00,69.0,58.0,30.32,ESE,110,2.0,7.0,67,0.00,,,0.00,,2013-08-24 16:23:00,
2013-08-24 12:53:00,71.0,59.0,30.32,North,0,0.0,5.0,66,0.00,,,0.00,,2013-08-24 16:53:00,
2013-08-24 13:23:00,72.0,57.0,30.32,West,260,1.0,7.0,60,0.00,,,0.00,,2013-08-24 17:23:00,
2013-08-24 13:52:00,72.0,58.0,30.31,East,90,3.0,5.0,61,0.00,,,0.00,,2013-08-24 17:52:00,
2013-08-24 14:22:00,70.0,59.0,30.31,ENE,76,1.0,6.0,67,0.00,,,0.00,,2013-08-24 18:22:00,
2013-08-24 14:53:00,70.0,59.0,30.31,East,97,2.0,6.0,67,0.00,,,0.00,,2013-08-24 18:53:00,
2013-08-24 15:12:00,70.0,59.0,30.34,ESE,110,2.0,7.0,67,0.00,,,0.00,,2013-08-24 19:12:00,
2013-08-24 15:22:00,70.0,57.0,30.33,North,0,0.0,4.0,63,0.00,,,0.00,,2013-08-24 19:22:00,
2013-08-24 15:52:00,72.0,59.0,30.33,East,97,3.0,7.0,63,0.00,,,0.00,,2013-08-24 19:52:00,
2013-08-24 16:22:00,72.0,58.0,30.33,East,93,3.0,9.0,61,0.00,,,0.00,,2013-08-24 20:22:00,
2013-08-24 16:53:00,72.0,59.0,30.33,East,93,3.0,10.0,63,0.00,,,0.00,,2013-08-24 20:53:00,
2013-08-24 17:22:00,72.0,57.0,30.33,East,100,3.0,6.0,60,0.00,,,0.00,,2013-08-24 21:22:00,
2013-08-24 17:55:00,72.0,58.0,30.33,East,86,2.0,8.0,62,0.00,,,0.00,,2013-08-24 21:55:00,
2013-08-24 18:24:00,71.0,58.0,30.33,North,0,0.0,7.0,63,0.00,,,0.00,,2013-08-24 22:24:00,
2013-08-24 18:53:00,70.0,57.0,30.33,ESE,121,2.0,5.0,63,0.00,,,0.00,,2013-08-24 22:53:00,
2013-08-24 19:22:00,69.0,58.0,30.34,East,101,1.0,5.0,68,0.00,,,0.00,,2013-08-24 23:22:00,
2013-08-24 19:53:00,68.0,59.0,30.34,North,0,0.0,1.0,72,0.00,,,0.00,,2013-08-24 23:53:00,
2013-08-24 20:22:00,67.0,58.0,30.35,North,0,0.0,0.0,74,0.00,,,0.00,,2013-08-25 00:22:00,
2013-08-24 20:52:00,65.0,57.0,30.36,North,0,0.0,0.0,76,0.00,,,0.00,,2013-08-25 00:52:00,
2013-08-24 21:11:00,65.0,58.0,30.36,North,0,0.0,0.0,77,0.00,,,0.00,,2013-08-25 01:11:00,
2013-08-24 21:22:00,64.0,57.0,30.37,North,0,0.0,0.0,78,0.00,,,0.00,,2013-08-25 01:22:00,
2013-08-24 21:43:00,63.0,56.0,30.37,North,0,0.0,0.0,78,0.00,,,0.00,,2013-08-25 01:43:00,
2013-08-24 21:52:00,63.0,56.0,30.37,North,0,0.0,0.0,78,0.00,,,0.00,,2013-08-25 01:52:00,
2013-08-24 22:22:00,62.0,55.0,30.34,North,0,0.0,0.0,77,0.00,,,0.00,,2013-08-25 02:22:00,
2013-08-24 22:52:00,61.0,55.0,30.35,North,0,0.0,0.0,81,0.00,,,0.00,,2013-08-25 02:52:00,
2013-08-24 23:23:00,60.0,55.0,30.35,North,0,0.0,0.0,85,0.00,,,0.00,,2013-08-25 03:23:00,
2013-08-24 23:54:00,60.0,54.0,30.35,North,0,0.0,0.0,82,0.00,,,0.00,,2013-08-25 03:54:00,